Location: Carrières
(48.9495°N, 2.0407°E)
Time: 08:55:23
(UTC+00:00)

Cosmos 2322 Rocket - Pass Details

Date: 28 January 2023
Orbit: 831 x 851 km, 71.0° (Epoch: 23 March)

Event Time Altitude Azimuth Distance (km) Brightness Sun altitude
Rises 19:44:55 0° 207° (SSW) 3,365 5.6 -29.9°
Reaches altitude 10° 19:47:20 10° 208° (SSW) 2,434 4.8 -30.3°
Enters shadow 19:50:45 39° 210° (SSW) 1,229 3.1 -30.8°
